KOREASAT 5 (MUGUNGWHA 5)

Last updated on Thu Sep 10 2026 00:02:56 GMT+0000 (Coordinated Universal Time)

1 29349U 06034A 26252.53669476 -.00000378 00000+0 00000+0 0 9990 2 29349 1.9963 81.8110 0002085 140.1074 72.9274 1.00269175 42163
UTC large
Height (km)
Speed (km/s)
/
Latitude / Longitude
Inclination (degrees)
Orbital Period (minutes)
Azimuth
Elevation
Range (km)
Doppler Factor

Next 0 passes for location: London (51.5072 / 0.1276)

No passes found over London.
KOREASAT 5 (MUGUNGWHA 5)